Location: Ammerl�gen
(47.2167°N, 9.6000°E)
Time: 02:39:15
(UTC+00:00)

SL-4 R/B - Pass Details

Date: 21 April 2021
Orbit: 427 x 663 km, 51.6° (Epoch: 16 May)

Event Time Altitude Azimuth Distance (km) Brightness Sun altitude
Rises 19:52:10 0° 221° (SW) 2,752 5.6 -14.7°
Reaches altitude 10° 19:54:25 10° 215° (SW) 1,897 4.7 -15.0°
Maximum altitude 19:58:34 44° 143° (SE) 849 2.5 -15.6°
Drops below altitude 10° 20:03:00 10° 72° (ENE) 2,028 4.6 -16.2°
Enters shadow 20:03:03 10° 71° (ENE) 2,046 4.6 -16.2°
